Location: Gray Hills
(38.6738°N, 119.5252°W)
Time: 13:07:13
(UTC+00:00)

Daily predictions for brighter satellites

Satellite Brightness Start Highest point End
(mag) Time Altitude Azimuth Time Altitude Azimuth Time Altitude Azimuth
Cosmos 1263 4.4 12:05:54 10° N 12:09:03 73° E 12:12:00 10° SSE
SL-8 R/B 3.9 12:05:24 10° WSW 12:10:12 71° NNW 12:15:00 10° NE
ADEOS II 4.2 12:09:21 10° NW 12:10:16 10° WNW 12:11:11 10° WNW
Cosmos 1464 Rocket 4.2 12:05:35 10° S 12:11:57 85° E 12:18:22 10° N
